This demonstration page uses our WeatherBlox Daily Observations layout. Learn more.

Left ArrowRight Arrow

44.89941, -97.11507

Hourly Observations for May 13, 2019

Temp ( °F °C ) Dew Point ( °F °C ) Humidity (%) Winds ( mph kmh ) Pressure ( in mb ) Visibility ( mi km ) Precip ( " mm )
12:53 am 00:53 Clear 47 8.3 42 5.6 83 83 S 8 13 29.90 1012 10 16 0.00 0.00
1:53 am 01:53 Clear 44 6.7 41 5 89 89 SSE 8 13 29.89 1012 10 16 0.00 0.00
2:53 am 02:53 Clear 43 6.1 40 4.4 89 89 SSE 7 11 29.89 1012 10 16 0.00 0.00
3:53 am 03:53 Clear 42 5.6 40 4.4 92 92 SSE 8 13 29.90 1013 10 16 0.00 0.00
4:53 am 04:53 Clear 43 6.1 40 4.4 89 89 SSE 9 15 29.89 1012 10 16 0.00 0.00
5:53 am 05:53 Clear 42 5.6 40 4.4 92 92 SSE 9 15 29.91 1013 10 16 0.00 0.00
6:53 am 06:53 Sunny 43 6.1 41 5 93 93 SSE 8 13 29.91 1013 10 16 0.00 0.00
7:53 am 07:53 Sunny 47 8.3 43 6.1 86 86 SSE 8 13 29.91 1013 10 16 0.00 0.00
8:53 am 08:53 Sunny 51 10.6 45 7.2 80 80 S 10 17 29.91 1013 10 16 0.00 0.00
9:53 am 09:53 Sunny 55 12.8 47 8.3 74 74 S 12 19 29.89 1012 10 16 0.00 0.00
10:53 am 10:53 Sunny 59 15 46 7.8 62 62 S 15 24 29.88 1012 10 16 0.00 0.00
11:53 am 11:53 Sunny 62 16.7 47 8.3 58 58 SSW 15 24 29.87 1012 10 16 0.00 0.00
12:53 pm 12:53 Sunny 63 17.2 45 7.2 52 52 S 10 17 29.85 1011 10 16 0.00 0.00
1:53 pm 13:53 Mostly Sunny 65 18.3 45 7.2 49 49 S 14 22 29.84 1010 10 16 0.00 0.00
2:53 pm 14:53 Sunny 67 19.4 44 6.7 44 44 S 13 20 29.83 1010 10 16 0.00 0.00
3:53 pm 15:53 Sunny 67 19.4 43 6.1 42 42 SSE 12 19 29.82 1010 10 16 0.00 0.00
4:53 pm 16:53 Sunny 68 20 45 7.2 44 44 S 13 20 29.81 1009 10 16 0.00 0.00
5:53 pm 17:53 Sunny 68 20 46 7.8 45 45 S 12 19 29.80 1009 10 16 0.00 0.00
6:53 pm 18:53 Sunny 66 18.9 45 7.2 47 47 S 14 22 29.80 1009 10 16 0.00 0.00
7:53 pm 19:53 Sunny 65 18.3 45 7.2 49 49 SE 12 19 29.80 1009 10 16 0.00 0.00
8:53 pm 20:53 Mostly Clear 63 17.2 46 7.8 54 54 ESE 6 9 29.81 1009 10 16 0.00 0.00
9:53 pm 21:53 Mostly Clear 61 16.1 46 7.8 58 58 ESE 6 9 29.83 1010 10 16 0.00 0.00
10:53 pm 22:53 Partly Cloudy 60 15.6 47 8.3 62 62 SE 10 17 29.82 1010 10 16 0.00 0.00
11:53 pm 23:53 Mostly Cloudy 59 15 47 8.3 64 64 SSE 10 17 29.82 1010 10 16 0.00 0.00

Powered by AerisWeather